Theta_e
302 303 303 302 301 300 300 300 300 299 298 298 298 298 298 298 298 300 308 308 309 311 312 314 317 322 324 323 323 322 322 325 326 327 327 325 325 334 337 337 338 338 335 334 332
300 302 302 303 302 301 301 301 301 300 299 299 298 298 298 298 301 311 310 309 306 306 306 306 310 320 324 323 323 322 321 324 323 324 326 325 323 337 337 337 337 337 337 334 329
305 302 303 303 304 304 303 302 301 301 299 299 299 299 298 299 309 311 307 307 307 305 305 305 308 317 323 323 323 322 323 322 323 324 325 325 325 334 336 335 336 335 335 332 327
307 307 306 304 304 304 304 303 301 301 300 299 299 299 299 304 306 306 306 305 306 312 309 309 313 319 322 325 324 324 323 323 324 324 325 325 326 332 335 336 336 336 335 330 325
307 307 307 307 305 305 304 303 302 302 300 299 299 299 299 302 305 305 304 300 308 312 313 312 312 316 320 323 324 325 324 323 322 322 323 325 326 332 334 336 336 336 333 330 325
305 305 306 306 306 305 304 304 302 302 300 299 299 299 299 304 305 304 302 303 304 310 311 313 313 315 318 320 323 323 323 323 322 322 322 324 326 332 334 335 335 335 333 331 327
302 302 303 304 305 304 304 304 303 301 300 299 299 299 302 305 303 302 304 303 304 307 310 311 313 314 317 319 320 322 323 323 323 323 323 325 329 331 333 334 333 333 332 331 330
305 305 302 303 303 303 304 304 303 301 299 299 299 304 305 304 305 305 300 300 305 307 309 310 312 314 314 316 318 321 321 320 320 320 323 325 328 327 333 334 334 333 332 332 332
302 303 306 302 303 304 304 304 301 300 300 301 303 306 304 304 303 300 300 303 307 304 310 310 311 313 314 315 316 320 321 321 321 319 320 323 327 327 331 333 329 327 328 332 331
302 303 305 304 304 304 304 302 302 303 302 303 306 304 306 302 302 301 304 306 307 308 307 309 312 311 311 314 315 318 319 318 319 317 314 321 325 326 328 330 325 323 324 329 330
304 304 305 305 304 304 301 300 299 304 299 299 301 301 300 304 303 305 305 305 306 308 307 307 309 309 310 312 313 316 316 317 318 313 314 317 317 326 326 328 324 321 319 322 323
304 305 305 305 304 301 300 299 299 299 301 302 302 301 304 305 305 303 305 305 306 307 306 305 306 307 310 311 312 314 315 315 312 313 313 313 314 313 324 326 323 321 318 318 317
305 305 305 304 301 300 299 299 299 300 303 303 301 302 303 305 304 305 305 305 305 305 306 306 306 306 310 310 312 313 315 313 314 311 312 312 316 318 322 324 322 320 318 314 317
305 305 304 301 303 301 300 299 298 300 296 301 302 305 302 302 303 303 305 305 306 306 306 306 306 306 307 310 311 313 312 313 312 314 318 312 318 313 313 323 321 319 317 316 317
305 305 302 303 302 302 300 298 299 303 288 298 300 302 301 302 302 305 304 305 307 306 306 305 307 306 308 309 309 312 313 314 313 313 313 313 317 317 317 316 322 319 317 313 316
305 303 301 300 300 299 298 300 301 293 293 298 301 300 301 301 302 303 303 304 306 306 305 304 305 306 307 308 309 310 312 313 312 314 316 315 316 316 321 318 318 319 316 312 312
304 302 300 299 300 298 299 302 293 290 294 294 298 300 300 301 303 303 302 302 302 303 298 303 303 305 308 309 309 311 313 314 315 316 315 315 316 314 319 318 318 316 312 308 309
303 300 299 299 298 299 302 294 289 287 291 298 300 299 301 303 302 301 301 301 301 302 303 300 300 306 308 308 308 311 313 315 317 317 316 315 317 317 315 316 316 315 313 308 308
301 299 299 299 299 301 301 291 292 293 299 296 297 296 297 302 299 300 300 298 302 303 306 303 301 303 306 306 308 308 310 310 313 314 319 318 317 316 312 316 316 315 309 307 307
299 300 299 299 299 301 294 296 292 298 299 296 295 298 295 295 294 293 296 300 304 303 302 305 304 303 307 308 309 307 310 309 312 317 317 317 318 317 312 315 315 313 306 306 306
300 300 299 299 300 301 291 294 294 298 298 298 295 297 298 298 298 290 293 299 302 301 302 303 304 303 306 309 311 308 308 310 312 314 317 317 316 308 311 315 313 311 307 305 305
302 295 299 299 297 295 295 286 297 298 299 299 298 297 298 300 296 296 293 298 301 300 302 302 306 298 303 305 308 309 308 309 307 308 313 313 314 303 304 305 313 309 306 303 304
301 299 298 299 290 295 295 293 297 298 298 298 298 298 299 299 298 294 293 300 300 301 303 303 306 292 296 301 307 309 308 310 310 310 312 314 313 304 304 309 311 309 304 303 303
301 296 298 299 299 298 287 288 291 297 298 299 299 299 298 298 298 293 294 299 300 300 300 302 306 300 299 306 305 306 306 307 310 307 310 312 312 307 306 308 309 308 305 307 307
301 299 297 288 292 296 295 291 290 293 298 298 298 297 298 295 297 293 293 299 299 299 298 298 302 304 301 304 306 306 306 308 310 309 311 311 313 306 306 307 306 308 306 305 304
299 297 297 296 298 296 296 294 295 294 296 294 297 298 298 295 296 295 298 298 298 297 298 297 298 302 300 301 304 306 306 307 307 308 309 310 311 305 304 306 305 304 302 301 302
299 298 298 296 295 294 294 295 297 297 297 298 297 297 297 297 298 299 298 297 296 296 298 297 298 301 300 302 304 301 301 305 305 307 309 310 309 304 304 305 305 304 303 301 301
Wind_Speed
5 5 6 8 9 11 12 13 15 16 17 18 18 18 16 16 14 8 6 7 11 14 14 16 16 14 13 10 11 11 2 5 5 6 11 29 8 6 10 19 6 10 27 28 35
5 5 6 7 8 9 10 12 14 15 16 17 18 18 17 15 13 9 9 12 15 19 18 17 17 12 9 7 9 9 5 8 8 13 15 24 14 12 8 13 6 14 16 42 40
6 5 6 6 7 8 10 11 12 14 15 16 17 17 16 13 7 7 11 14 16 14 14 14 12 11 6 12 9 5 9 4 17 25 27 22 28 14 20 4 16 28 42 47 43
8 8 8 8 8 10 10 11 12 13 14 15 16 18 14 10 4 10 15 17 13 10 9 9 7 3 3 8 16 11 15 14 24 34 21 15 24 8 14 11 30 34 48 49 46
10 10 9 10 10 10 11 11 12 13 15 15 16 16 17 8 2 9 15 15 3 6 9 5 8 9 9 4 12 17 9 16 20 29 26 25 19 11 3 16 30 40 41 44 46
13 12 10 10 10 11 11 12 12 13 15 15 15 16 12 4 5 14 13 10 6 6 5 5 9 9 13 9 15 12 11 18 20 26 22 19 9 6 6 31 37 44 35 38 41
12 11 11 11 11 11 11 12 13 13 14 14 14 14 9 5 11 10 13 12 9 7 8 11 8 13 4 6 17 11 10 14 27 24 13 14 6 5 16 27 35 33 35 35 35
10 8 9 10 10 10 10 11 12 14 14 13 10 8 6 5 7 12 17 15 3 7 11 11 11 13 15 13 6 5 9 16 17 26 19 13 22 4 25 30 29 31 31 36 36
10 8 7 8 8 9 9 11 12 12 9 8 4 5 4 7 13 23 15 12 12 8 9 11 13 10 8 7 9 7 9 8 10 19 12 9 9 11 21 30 29 27 33 40 36
7 6 6 6 6 7 9 10 7 5 9 5 6 6 2 15 24 13 9 9 12 13 10 9 6 4 3 6 12 12 7 10 12 5 7 14 17 15 25 26 27 28 33 37 36
6 5 5 3 3 5 8 5 4 2 10 3 8 6 13 17 13 11 7 11 8 7 3 10 3 6 11 12 15 9 6 10 7 5 3 8 12 15 24 23 23 23 26 35 34
6 5 4 2 1 3 5 4 5 4 6 6 4 7 9 11 10 13 9 7 9 6 5 4 10 15 9 12 13 16 14 8 3 0 5 4 15 11 17 23 30 30 26 30 32
6 6 5 4 1 3 6 7 6 6 2 2 5 4 7 9 8 7 10 11 6 6 7 7 14 9 10 12 13 13 13 6 1 2 2 3 6 6 14 14 23 23 25 26 34
8 7 7 5 2 2 4 6 5 4 4 4 1 1 6 13 4 15 7 5 4 5 5 8 8 11 13 10 6 13 10 14 5 3 3 2 4 2 13 10 15 24 28 35 34
10 9 8 3 4 1 2 3 3 2 5 5 5 6 15 4 14 3 9 5 5 9 3 7 11 12 14 15 10 7 7 11 8 9 4 4 3 1 8 9 10 20 30 32 37
11 10 8 5 2 1 2 2 1 6 3 4 4 6 7 9 3 9 15 9 13 7 7 15 16 5 11 5 8 5 3 5 5 3 7 11 6 5 6 10 8 15 26 33 37
12 10 7 5 2 2 2 2 5 5 4 7 4 5 7 4 5 6 5 6 3 6 3 13 6 8 9 3 5 2 4 4 6 6 5 16 8 13 9 7 13 10 23 31 39
12 9 6 3 2 3 1 5 6 4 4 3 4 9 3 6 4 7 6 5 5 5 7 4 8 2 2 5 6 7 4 5 3 4 4 10 8 5 3 5 16 27 26 32 37
12 9 6 5 4 3 1 4 7 5 2 2 6 5 4 3 3 6 4 3 2 8 3 4 6 4 4 7 1 4 5 1 6 3 3 5 2 3 1 5 6 23 28 29 32
13 8 6 6 5 2 4 3 2 2 1 4 2 3 3 5 6 6 3 3 5 6 10 4 8 5 1 5 5 7 2 2 1 4 1 2 3 1 4 6 7 16 24 26 30
12 5 6 7 6 2 3 4 2 3 3 2 2 2 3 3 2 3 5 7 3 8 10 7 6 6 3 1 4 2 4 4 4 3 2 3 2 2 6 9 15 16 25 28 31
10 2 7 8 3 2 2 4 2 4 5 2 2 2 4 4 3 3 5 3 7 5 12 4 3 3 7 5 7 4 5 6 2 3 3 3 2 2 4 1 8 16 22 22 28
10 4 7 8 3 2 1 3 3 4 3 4 3 5 5 2 4 4 4 5 17 6 4 4 2 3 9 5 3 1 7 5 4 1 3 0 2 1 4 4 15 22 23 27 28
8 2 3 5 3 5 3 3 2 6 3 5 3 2 1 5 6 5 4 6 19 2 15 10 3 3 4 3 2 4 8 8 3 1 4 2 2 3 3 6 10 19 24 28 31
7 4 5 2 4 4 5 6 2 2 5 5 3 6 4 3 4 4 4 6 6 6 12 4 3 3 5 7 5 5 5 5 2 3 2 3 4 5 1 4 8 20 24 24 28
9 7 6 5 5 6 4 4 7 3 7 4 5 3 5 6 7 6 4 2 4 6 6 7 4 4 4 6 3 7 9 7 6 3 6 6 1 5 3 7 11 21 25 26 30
13 10 5 7 5 4 4 6 6 7 8 6 7 2 6 12 17 18 16 11 9 4 4 3 4 4 4 5 5 7 8 11 4 5 6 7 5 5 0 4 12 19 25 27 30
Wind_Direction
15 13 16 15 15 12 9 6 4 360 356 354 355 356 354 343 344 343 337 282 271 271 279 274 275 266 249 257 244 255 239 201 243 264 269 278 265 150 124 133 142 170 162 170 163
24 4 2 2 3 3 3 2 360 358 356 354 354 354 353 349 360 47 5 318 285 280 287 288 283 291 251 248 219 189 204 220 194 248 263 289 274 153 131 129 83 121 158 156 160
7 354 342 347 348 350 354 355 356 355 353 354 354 353 354 349 72 25 1 344 331 316 291 286 291 293 255 233 226 244 233 241 264 258 261 284 307 204 147 170 162 148 150 156 163
313 312 317 324 328 333 343 348 348 349 350 352 353 351 2 28 64 4 322 319 329 343 331 303 315 273 243 231 235 257 263 264 261 269 276 279 300 221 163 178 184 171 159 162 168
297 297 299 298 309 319 333 339 342 343 345 348 351 352 356 358 28 304 310 332 320 350 327 287 286 278 250 248 250 252 270 278 287 295 298 279 286 247 99 161 171 159 160 167 171
285 284 290 294 299 310 322 331 335 338 340 343 346 344 349 337 346 317 336 341 304 286 280 298 253 266 293 271 248 282 281 271 287 287 298 275 249 250 126 157 156 158 166 169 174
281 277 276 282 292 302 313 323 330 334 336 337 339 337 342 333 332 335 326 323 320 293 280 266 310 245 304 270 268 245 239 282 272 272 288 268 254 213 154 149 148 160 161 166 176
274 277 272 275 287 298 309 322 329 331 330 331 337 337 301 3 339 328 331 334 313 273 272 281 293 262 249 264 278 226 230 243 264 266 272 239 250 185 169 159 153 162 167 168 172
267 268 275 276 285 299 315 325 328 331 347 0 40 346 319 318 316 322 318 323 340 295 248 256 260 257 262 239 265 240 223 225 257 251 262 260 237 182 180 164 149 163 164 163 159
264 254 263 275 291 313 327 331 322 347 19 5 34 317 276 328 322 333 360 334 314 307 309 265 246 238 262 218 230 235 245 224 226 20 340 281 272 179 187 170 163 163 167 171 174
244 235 243 260 302 332 344 355 354 348 333 303 310 291 309 330 341 350 342 321 312 282 266 287 230 244 240 232 240 284 223 272 207 85 80 304 310 203 191 176 164 162 165 169 182
215 209 209 202 323 359 19 63 58 335 320 352 289 325 336 319 315 331 340 346 334 303 285 310 258 249 259 280 247 238 255 243 275 174 119 324 300 314 211 186 172 165 169 168 178
193 190 176 155 128 43 48 62 33 2 292 305 327 338 341 337 316 319 334 322 284 285 289 260 258 288 203 283 253 241 242 214 308 229 88 307 254 297 236 188 171 171 167 168 178
181 172 163 157 119 67 39 36 16 16 69 317 335 308 353 320 272 321 286 311 306 303 307 265 312 272 254 256 259 264 219 221 199 179 237 168 279 258 300 197 175 167 171 178 182
173 166 162 162 147 166 33 16 3 55 34 284 314 324 336 320 291 283 350 308 252 264 301 257 306 317 310 249 230 254 188 217 191 186 175 156 254 164 184 282 205 179 178 175 182
167 163 169 160 169 82 45 20 56 44 278 339 301 351 355 306 265 280 301 290 267 273 245 260 263 217 241 286 247 270 232 275 198 203 233 188 170 200 191 217 216 189 175 169 174
172 174 174 162 146 86 69 358 37 110 326 306 332 343 328 289 313 19 322 311 289 328 350 317 263 235 211 252 285 147 224 227 215 188 227 165 179 244 210 156 192 198 169 161 171
171 171 172 172 141 120 97 54 77 232 241 319 319 306 299 5 322 336 311 313 282 228 289 260 321 267 217 208 211 201 221 256 220 180 184 152 208 266 171 165 147 184 184 170 176
170 170 177 159 144 145 71 61 196 207 246 16 330 44 320 8 17 352 306 252 289 34 317 307 273 316 240 195 218 261 213 123 310 257 172 169 275 280 134 209 222 180 166 173 179
167 168 174 157 154 162 77 206 184 211 327 79 124 30 316 308 14 23 292 280 337 43 12 299 299 273 316 27 225 226 195 54 77 292 87 55 337 256 206 223 126 160 164 169 175
163 164 174 167 157 103 138 213 220 228 231 145 229 301 277 306 282 280 259 304 9 327 336 264 220 281 343 331 306 244 249 255 160 250 330 121 253 200 197 197 175 170 169 167 173
161 95 171 169 74 43 158 188 207 218 188 240 180 213 227 280 284 278 245 227 353 1 315 254 273 265 227 264 151 256 255 210 151 272 260 248 214 296 264 161 159 156 149 150 172
153 126 168 182 140 194 204 295 250 194 199 196 233 201 213 278 305 239 277 293 326 344 318 342 261 4 339 357 359 218 338 267 288 84 235 300 312 356 279 85 153 149 150 160 170
158 120 157 185 168 146 150 256 285 213 219 219 262 289 306 279 213 272 292 295 316 297 318 303 296 159 192 206 192 299 318 323 254 82 314 265 346 348 17 95 130 149 164 181 179
174 193 174 206 248 173 156 159 174 254 210 211 283 204 201 278 283 241 273 300 298 5 347 17 294 327 263 259 230 251 262 297 290 236 158 302 24 330 292 170 132 150 156 165 176
168 155 162 168 128 131 188 226 193 247 165 247 217 228 216 231 203 260 255 273 264 331 340 338 296 311 293 280 274 273 258 244 239 244 250 285 190 286 338 137 140 151 159 167 181
196 170 168 160 152 122 212 206 208 187 223 208 213 229 265 256 260 265 263 249 258 319 310 317 316 318 281 338 331 296 224 235 236 210 180 225 190 178 256 183 183 173 176 177 188